Weather observations for the past three days for
Los Angeles, Los Angeles International Airport
| Date | Time (pdt) | Wind (mph) | Vis. (mi.) | Weather | Sky Cond. | Temperature (ºF) | Relative Humidity | Wind Chill (°F) | Heat Index (°F) | Pressure | Precipitation (in) | ||||||
|---|---|---|---|---|---|---|---|---|---|---|---|---|---|---|---|---|---|
| Air | Dwpt | 6 hour | altimeter (in) | sea level (mb) | 1 hr | 3 hr | 6 hr | ||||||||||
| Max. | Min. | ||||||||||||||||
| 02 | 14:53 | W 15 | 10.00 | Mostly Cloudy | FEW011 BKN014 BKN220 BKN270 | 64.9 | 55 | 70% | 29.91 | 1012.8 | |||||||
| 02 | 13:53 | W 14 | 10.00 | Mostly Cloudy | FEW011 SCT015 BKN220 BKN270 | 66.9 | 55.9 | 68% | 29.93 | 1013.3 | |||||||
| 02 | 12:53 | W 10 | 10.00 | Overcast | FEW010 OVC016 | 66 | 55.9 | 70% | 29.93 | 1013.5 | |||||||
| 02 | 11:53 | SW 13 | 9.00 | Overcast | OVC014 | 63 | 55.9 | 78% | 29.97 | 1014.6 | |||||||
| 02 | 10:53 | Calm | 6.00 | Overcast with Haze | OVC013 | 62.1 | 55.9 | 63 | 59 | 80% | 29.96 | 1014.5 | |||||
| 02 | 09:53 | Calm | 7.00 | Overcast | OVC012 | 62.1 | 55.9 | 80% | 29.98 | 1015.2 | |||||||
| 02 | 08:53 | Calm | 6.00 | Overcast with Haze | OVC010 | 61 | 55.9 | 84% | 29.98 | 1015.2 | |||||||
| 02 | 07:53 | Vrbl 3 | 6.00 | Fog/Mist | OVC008 | 60.1 | 55.9 | 86% | 29.97 | 1014.6 | |||||||
| 02 | 06:53 | NW 5 | 6.00 | Fog/Mist | OVC007 | 59 | 55.9 | 90% | 29.96 | 1014.3 | |||||||
| 02 | 05:53 | W 5 | 8.00 | Overcast | OVC008 | 59 | 55.9 | 90% | 29.95 | 1013.9 | |||||||
| 02 | 04:53 | SW 6 | 8.00 | Overcast | OVC007 | 59 | 55.9 | 59 | 57.9 | 90% | 29.94 | 1013.6 | |||||
| 02 | 03:53 | SW 6 | 7.00 | Overcast | OVC007 | 59 | 55.9 | 90% | 29.93 | 1013.3 | |||||||
| 02 | 02:53 | SW 6 | 7.00 | Overcast | OVC007 | 59 | 55.9 | 90% | 29.93 | 1013.2 | |||||||
| 02 | 01:53 | W 6 | 7.00 | Overcast | OVC008 | 59 | 55.9 | 90% | 29.93 | 1013.5 | |||||||
| 02 | 00:53 | W 5 | 9.00 | Mostly Cloudy | SCT009 BKN010 | 57.9 | 55 | 90% | 29.95 | 1013.9 | |||||||
| 01 | 23:53 | SW 5 | 9.00 | Mostly Cloudy | BKN010 | 59 | 55 | 87% | 29.95 | 1014.1 | |||||||
| 01 | 22:53 | W 6 | 10.00 | Mostly Cloudy | BKN011 | 59 | 55 | 66.9 | 59 | 87% | 29.95 | 1013.9 | |||||
| 01 | 21:53 | SW 9 | 10.00 | Overcast | OVC010 | 59 | 55 | 87% | 29.95 | 1013.8 | |||||||
| 01 | 20:53 | SW 10 | 10.00 | Mostly Cloudy | BKN010 | 60.1 | 55.9 | 86% | 29.93 | 1013.3 | |||||||
| 01 | 19:53 | W 16 | 10.00 | Partly Cloudy | SCT010 SCT200 | 61 | 55.9 | 84% | 29.9 | 1012.3 | |||||||
| 01 | 18:53 | W 17 | 10.00 | Partly Cloudy | SCT012 SCT250 | 62.1 | 55.9 | 80% | 29.89 | 1012.0 | |||||||
| 01 | 17:53 | W 17 | 10.00 | A Few Clouds | FEW013 FEW250 | 64.9 | 55 | 70% | 29.89 | 1011.9 | |||||||
| 01 | 16:53 | W 16 | 10.00 | A Few Clouds | FEW014 FEW060 | 66.9 | 55.9 | 70 | 66 | 68% | 29.89 | 1011.9 | |||||
| 01 | 15:53 | SW 14 | 10.00 | Partly Cloudy | FEW029 SCT060 | 66.9 | 55.9 | 68% | 29.9 | 1012.3 | |||||||
| 01 | 14:53 | W 14 | 9.00 | A Few Clouds | FEW044 FEW070 | 68 | 55 | 63% | 29.92 | 1013.0 | |||||||
| 01 | 13:53 | W 14 | 10.00 | A Few Clouds | FEW045 FEW070 | 69.1 | 55 | 61% | 29.94 | 1013.5 | |||||||
| 01 | 12:53 | SW 13 | 10.00 | A Few Clouds | FEW030 FEW070 | 69.1 | 55 | 61% | 29.95 | 1013.9 | |||||||
| 01 | 11:53 | W 10 | 9.00 | Partly Cloudy | SCT027 | 69.1 | 55.9 | 63% | 29.96 | 1014.4 | |||||||
| 01 | 10:53 | S 5 | 10.00 | Mostly Cloudy | BKN025 | 68 | 54 | 68 | 61 | 61% | 29.97 | 1014.8 | |||||
| 01 | 09:53 | NE 7 | 10.00 | Overcast | OVC023 | 64.9 | 54 | 68% | 29.98 | 1015.2 | |||||||
| 01 | 08:53 | Vrbl 6 | 10.00 | Overcast | OVC021 | 64 | 54 | 70% | 29.98 | 1015.1 | |||||||
| 01 | 07:53 | E 6 | 10.00 | Overcast | OVC019 | 63 | 54 | 73% | 29.97 | 1014.6 | |||||||
| 01 | 06:53 | Vrbl 6 | 10.00 | Overcast | FEW011 OVC018 | 62.1 | 54 | 75% | 29.95 | 1014.1 | |||||||
| 01 | 05:53 | E 7 | 10.00 | Overcast | FEW012 OVC017 | 62.1 | 54 | 75% | 29.93 | 1013.5 | |||||||
| 01 | 04:53 | Calm | 10.00 | Overcast | FEW011 OVC017 | 62.1 | 55 | 62.1 | 60.1 | 78% | 29.93 | 1013.3 | |||||
| 01 | 03:53 | Vrbl 6 | 10.00 | Overcast | FEW011 OVC016 | 62.1 | 55 | 78% | 29.92 | 1012.8 | |||||||
| 01 | 02:53 | E 5 | 10.00 | Mostly Cloudy | FEW011 BKN016 | 61 | 55.9 | 84% | 29.92 | 1012.9 | |||||||
| 01 | 01:53 | Calm | 10.00 | Mostly Cloudy | FEW012 BKN016 | 61 | 55 | 81% | 29.93 | 1013.3 | |||||||
| 01 | 00:53 | Vrbl 5 | 10.00 | Partly Cloudy | FEW012 SCT160 | 61 | 55.9 | 84% | 29.94 | 1013.6 | |||||||
| 30 | 23:53 | Calm | 10.00 | A Few Clouds | FEW012 FEW016 | 61 | 55 | 81% | 29.93 | 1013.3 | |||||||
| 30 | 22:53 | S 3 | 10.00 | Partly Cloudy | FEW012 SCT016 | 61 | 55.9 | 64.9 | 60.1 | 84% | 29.92 | 1013.1 | |||||
| 30 | 21:53 | SW 7 | 10.00 | A Few Clouds | FEW014 | 61 | 55.9 | 84% | 29.92 | 1013.0 | |||||||
| 30 | 20:53 | SW 5 | 10.00 | A Few Clouds | FEW014 | 61 | 55.9 | 84% | 29.9 | 1012.3 | |||||||
| 30 | 19:53 | S 6 | 10.00 | A Few Clouds | FEW014 FEW040 | 61 | 55.9 | 84% | 29.88 | 1011.7 | |||||||
| 30 | 18:53 | SW 12 | 10.00 | A Few Clouds | FEW013 | 63 | 55.9 | 78% | 29.86 | 1011.1 | |||||||
| 30 | 17:53 | SW 14 | 10.00 | A Few Clouds | FEW010 FEW040 | 64 | 55.9 | 75% | 29.86 | 1010.9 | |||||||
| 30 | 16:53 | SW 15 | 10.00 | A Few Clouds | FEW010 FEW050 | 64.9 | 55.9 | 70 | 64.9 | 73% | 29.85 | 1010.8 | |||||
| 30 | 15:53 | W 15 | 10.00 | A Few Clouds | FEW010 FEW050 | 66.9 | 55 | 66% | 29.86 | 1011.0 | |||||||
| 30 | 14:53 | W 15 G 26 | 10.00 | A Few Clouds | FEW010 FEW050 | 68 | 55 | 63% | 29.87 | 1011.5 | |||||||
| 30 | 13:53 | SW 15 | 10.00 | A Few Clouds | FEW010 FEW180 | 68 | 54 | 61% | 29.88 | 1011.7 | |||||||
| 30 | 12:53 | W 15 | 10.00 | A Few Clouds | FEW160 | 68 | 54 | 61% | 29.89 | 1011.8 | |||||||
| 30 | 11:53 | W 12 | 10.00 | A Few Clouds | FEW011 FEW140 | 68 | 53.1 | 59% | 29.9 | 1012.4 | |||||||
| 30 | 10:53 | W 10 | 10.00 | Partly Cloudy | FEW009 FEW025 SCT140 | 66.9 | 54 | 66.9 | 60.1 | 63% | 29.91 | 1012.7 | |||||
| 30 | 09:53 | Calm | 9.00 | Mostly Cloudy | FEW009 BKN023 | 64 | 54 | 70% | 29.92 | 1012.9 | |||||||
| 30 | 08:53 | Calm | 9.00 | Overcast | FEW009 OVC020 | 63 | 54 | 73% | 29.92 | 1013.2 | |||||||
| 30 | 07:53 | Calm | 10.00 | Overcast | FEW009 OVC016 | 61 | 54 | 78% | 29.93 | 1013.3 | |||||||
| 30 | 06:53 | Calm | 10.00 | Overcast | FEW009 BKN017 OVC022 | 61 | 54 | 78% | 29.92 | 1013.1 | |||||||
| 30 | 05:53 | Calm | 10.00 | Mostly Cloudy | FEW009 SCT012 BKN018 | 60.1 | 55 | 84% | 29.91 | 1012.7 | |||||||
| 30 | 04:53 | W 5 | 10.00 | Mostly Cloudy | FEW008 FEW012 BKN016 | 60.1 | 55 | 61 | 60.1 | 84% | 29.92 | 1013.0 | |||||
| 30 | 03:53 | W 5 | 10.00 | Mostly Cloudy | FEW008 BKN015 | 60.1 | 55 | 84% | 29.93 | 1013.4 | |||||||
| 30 | 02:53 | W 3 | 10.00 | Mostly Cloudy | FEW008 BKN014 | 61 | 55 | 81% | 29.94 | 1013.6 | |||||||
| 30 | 01:53 | W 8 | 10.00 | Mostly Cloudy | FEW009 BKN012 | 61 | 55.9 | 84% | 29.96 | 1014.4 | |||||||
| 30 | 00:53 | S 3 | 10.00 | Mostly Cloudy | FEW009 BKN012 | 61 | 57 | 87% | 29.98 | 1014.8 | |||||||
| 29 | 23:53 | W 5 | 10.00 | A Few Clouds | FEW010 FEW014 | 60.1 | 55 | 84% | 29.98 | 1014.9 | |||||||
| 29 | 22:53 | SW 7 | 10.00 | A Few Clouds | FEW010 FEW010 | 61 | 55 | 66.9 | 61 | 81% | 29.99 | 1015.3 | |||||
| 29 | 21:53 | W 6 | 10.00 | Fair | CLR | 61 | 55.9 | 84% | 29.99 | 1015.5 | |||||||
| 29 | 20:53 | W 5 | 10.00 | Fair | CLR | 61 | 55.9 | 84% | 29.98 | 1015.0 | |||||||
| 29 | 19:53 | SW 9 | 10.00 | A Few Clouds | FEW150 | 62.1 | 55 | 78% | 29.97 | 1014.7 | |||||||
| 29 | 18:53 | SW 10 | 10.00 | A Few Clouds | FEW150 FEW250 | 63 | 55 | 76% | 29.96 | 1014.5 | |||||||
| 29 | 17:53 | W 12 | 10.00 | A Few Clouds | FEW080 FEW250 | 64.9 | 55.9 | 73% | 29.95 | 1014.2 | |||||||
| 29 | 16:53 | W 14 | 10.00 | A Few Clouds | FEW250 | 66.9 | 52 | 70 | 66.9 | 59% | 29.96 | 1014.4 | |||||
| 29 | 15:53 | W 14 | 10.00 | A Few Clouds | FEW150 FEW250 | 66.9 | 52 | 59% | 29.97 | 1014.8 | |||||||
| Date | Time (pdt) | Wind (mph) | Vis. (mi.) | Weather | Sky Cond. | Air | Dwpt | Max. | Min. | Relative Humidity | Wind Chill (°F) | Heat Index (°F) | altimeter (in) | sea level (mb) | 1 hr | 3 hr | 6 hr |
| 6 hour | |||||||||||||||||
| Temperature (ºF) | Pressure | Precipitation (in) | |||||||||||||||